Weather History for CYKZ - July, 2013

Change the Weather History Date:

Thursday, July 25, 2013

  Actual Average Record
Temperature  
Mean Temperature 64 °F -  
Max Temperature 74 °F 77 °F 91 °F (2005)
Min Temperature 53 °F 58 °F 23 °F (2012)
Degree Days  
Heating Degree Days 2    
Growing Degree Days 14 (Base 50)    
Moisture  
Dew Point 51 °F    
Average Humidity 61    
Maximum Humidity 88    
Minimum Humidity 37    
Precipitation  
Precipitation 0.00 in - - ()
Sea Level Pressure  
Sea Level Pressure 30.11 in    
Wind  
Wind Speed 5 mph ()    
Max Wind Speed 10 mph    
Max Gust Speed -    
Visibility 15.0 miles    
Events      
Averages and records for this station are not official NWS values.
T = Trace of Precipitation, MM = Missing Value Source: Averaged Metar Reports

Daily Weather History Graph

Daily Weather History Graph

Search for Another Location

Airport or City:

Trip Planner

Search our weather history database for the weather conditions in past years. The results will help you decide how hot, cold, wet, or windy it might be!

Date:

Astronomy

Jul. 25, 2013 Rise Set
Actual Time 5:58 AM EDT 8:48 PM EDT
Civil Twilight 5:25 AM EDT 9:22 PM EDT
Nautical Twilight 4:42 AM EDT 10:04 PM EDT
Astronomical Twilight 3:52 AM EDT 10:53 PM EDT
Moon 10:17 PM EDT (7/25) 9:35 AM EDT (7/25)
Length of Visible Light 15h 56m
Length of Day
14h 49m
Waning Gibbous, 88% of the Moon is Illuminated
Jul 25
Waning Gibbous
Jul 29
Last Quarter
Aug 6
New
Aug 14
First Quarter
Aug 20
Full

Hourly Weather History & Observations

Time (EDT) Temp. Dew Point Humidity Pressure Visibility Wind Dir Wind Speed Gust Speed Precip Events Conditions
12:00 AM 59.0 °F 50.0 °F 72% 30.06 in 15.0 mi NNW 3.5 mph - N/A   Partly Cloudy
1:00 AM 59.0 °F 50.0 °F 72% 30.06 in 15.0 mi NNW 5.8 mph - N/A   Partly Cloudy
2:00 AM 59 °F 50 °F 63% 30.06 in 15 mi NNW 8.1 mph - -   Clear
2:00 AM 59.0 °F 50.0 °F 72% 30.06 in 15.0 mi NNW 8.1 mph - N/A   Partly Cloudy
3:00 AM 57.2 °F 50.0 °F 77% 30.06 in 15.0 mi NNW 4.6 mph - N/A   Partly Cloudy
4:00 AM 55.4 °F 50.0 °F 82% 30.06 in 15.0 mi NNW 5.8 mph - N/A   Partly Cloudy
5:00 AM 55.4 °F 50.0 °F 82% 30.08 in 15.0 mi NNW 3.5 mph - N/A   Partly Cloudy
6:00 AM 55.4 °F 51.8 °F 88% 30.09 in 15.0 mi NNW 4.6 mph - N/A   Partly Cloudy
7:00 AM 57.2 °F 51.8 °F 82% 30.11 in 15.0 mi Calm Calm - N/A   Partly Cloudy
8:00 AM 61 °F 52 °F 65% 30.12 in 15 mi North 3.5 mph - -   Clear
8:00 AM 60.8 °F 51.8 °F 72% 30.12 in 15.0 mi North 3.5 mph - N/A   Partly Cloudy
9:00 AM 66.2 °F 53.6 °F 64% 30.13 in 15.0 mi NE 3.5 mph - N/A   Clear
10:00 AM 68.0 °F 55.4 °F 64% 30.13 in 15.0 mi ESE 2.3 mph - N/A   Clear
11:00 AM 69.8 °F 51.8 °F 53% 30.14 in 15.0 mi ESE 5.8 mph - N/A   Partly Cloudy
12:00 PM 71.6 °F 50.0 °F 46% 30.14 in 15.0 mi ESE 5.8 mph - N/A   Scattered Clouds
1:00 PM 71.6 °F 50.0 °F 46% 30.13 in 15.0 mi East 5.8 mph - N/A   Partly Cloudy
2:00 PM 73.4 °F 51.8 °F 47% 30.12 in 15.0 mi ESE 9.2 mph - N/A   Partly Cloudy
3:00 PM 73.4 °F 51.8 °F 47% 30.12 in 15.0 mi ESE 10.4 mph - N/A   Partly Cloudy
4:00 PM 73.4 °F 50.0 °F 44% 30.12 in 15.0 mi SE 8.1 mph - N/A   Partly Cloudy
5:00 PM 71.6 °F 50.0 °F 46% 30.12 in 15.0 mi SE 9.2 mph - N/A   Partly Cloudy
6:00 PM 71.6 °F 50.0 °F 46% 30.12 in 15.0 mi ESE 4.6 mph - N/A   Partly Cloudy
7:00 PM 69.8 °F 48.2 °F 46% 30.12 in 15.0 mi SE 6.9 mph - N/A   Clear
8:00 PM 68 °F 48 °F 37% 30.12 in 15 mi SE 8.1 mph - -   Scattered Clouds
8:00 PM 68.0 °F 48.2 °F 49% 30.12 in 15.0 mi SSE 8.1 mph - N/A   Partly Cloudy
9:00 PM 66.2 °F 48.2 °F 52% 30.12 in 15.0 mi SE 4.6 mph - N/A   Partly Cloudy
10:00 PM 62.6 °F 48.2 °F 59% 30.14 in 15.0 mi SE 2.3 mph - N/A   Clear
11:00 PM 60.8 °F 51.8 °F 72% 30.15 in 15.0 mi Calm Calm - N/A   Clear